TIANMU-1 22

Last updated on Wed Jul 09 2025 00:02:21 GMT+0000 (Coordinated Universal Time)

1 58663U 23208D 25189.54503412 .00004625 00000+0 19139-3 0 9994 2 58663 97.4298 301.5672 0005809 111.4152 248.7706 15.24431113 84865
UTC large
Height (km)
Speed (km/s)
/
Latitude / Longitude
Inclination (degrees)
Orbital Period (minutes)
Azimuth
Elevation
Range (km)
Doppler Factor

Next 0 passes for location: London (51.5072 / 0.1276)

Sorry there are no passes over London.